Regional Weather Roundup
Issued by NWS

Home | Current Version | Previous Version | Text Only | Print | Product List | Glossary Off
Versions: 1 2 3 4 5 6 7 8 9 10 11 12 13 14 15 16 17 18 19 20 21 22 23 24 25 26 27 28 29 30 31 32 33 34 35 36 37 38 39 40 41 42 43 44 45 46 47 48 49 50

000
ASUS43 KMPX 041001
RWRMN
WEATHER ROUNDUP FOR MINNESOTA
NATIONAL WEATHER SERVICE TWIN CITIES/CHANHASSEN MN
400 AM CST SUN DEC 04 2016


NOTE: "FAIR" INDICATES FEW OR NO CLOUDS BELOW 12,000 FEET WITH NO
SIGNIFICANT WEATHER AND/OR OBSTRUCTIONS TO VISIBILITY. N/A MEANS
CURRENT SKY AND/OR WEATHER CONDITIONS ARE NOT AVAILABLE.

MNZ060>063-068>070-041100-
   Twin Cities Metro

CITY           SKY/WX    TMP DP  RH WIND       PRES   REMARKS
TWIN CITIES    LGT SNOW  31  29  92 SE12      30.02F FOG     WCI  22
ST PAUL        LGT SNOW  31  31 100 SE9       30.05F FOG     WCI  23
CRYSTAL        LGT SNOW  32  28  85 SE9       30.00F FOG     WCI  24
BLAINE         LGT SNOW  34  34 100 SE10      30.01F WCI  26
LAKEVILLE      LGT SNOW  30  30 100 SE6       30.02F WCI  24
EDEN PRAIRIE   LGT SNOW  33  30  88 SE12      30.00F FOG     WCI  24
SOUTH ST PAUL  LGT SNOW  32  31  96 SE3       30.04F
LAKE ELMO      LGT SNOW  32  32 100 SE7       30.04F WCI  26
$$
MNZ001>005-007-008-013>017-022>024-027-028-041100-
   Northwest Minnesota

CITY           SKY/WX    TMP DP  RH WIND       PRES   REMARKS
BEMIDJI        CLOUDY    28  27  96 SE12      29.88F FOG     WCI  18
HALLOCK        CLOUDY    34  32  93 SE15      29.78F FOG     WCI  24
ROSEAU         CLOUDY    30  27  86 SE9       29.84F WCI  22
WARROAD        CLOUDY    28  25  86 SE10      29.87F WCI  19
THIEF RVR FALL CLOUDY    32  30  92 SE15      29.82F WCI  22
CROOKSTON      CLOUDY    34  34 100 S17       29.81F WCI  23
FOSSTON        CLOUDY    30  28  93 SE10      29.84F WCI  21
DETROIT LAKES  LGT SNOW  32  32 100 S14       29.85F WCI  22
MOORHEAD       CLOUDY    34  30  86 S20       29.83F FOG     WCI  22
PARK RAPIDS    CLOUDY    30  27  88 SE14      29.88F FOG     WCI  19
$$
MNZ006-009>011-018-025>026-041100-
   North Central Minnesota

CITY           SKY/WX    TMP DP  RH WIND       PRES   REMARKS
BAUDETTE       CLOUDY    26  23  88 SE12      29.90F WCI  16
FLAG ISLAND    LGT SNOW  28  27  93 SE15G21   29.89F WCI  17
INTL FALLS     LGT SNOW  26  23  88 SE9       29.96F FOG     WCI  17
WASKISH        CLOUDY    28  27  93 SE7       29.91F WCI  21
BIG FORK       LGT SNOW  28  25  86 SE7       29.95F WCI  21
LONGVILLE      LGT SNOW  28  27  93 SE6       29.93F WCI  22
GRAND RAPIDS   LGT SNOW  26  24  92 SE9       29.98F FOG     WCI  17
CRANE LAKE     LGT SNOW  25  23  93 CALM      30.02F
ORR            LGT SNOW  25  21  86 SE6       29.96F WCI  18
COOK           LGT SNOW  25  25 100 SE6       29.99F WCI  18
$$
MNZ012-019>021-037-041100-
   Northeast Minnesota

CITY           SKY/WX    TMP DP  RH WIND       PRES   REMARKS
DULUTH         LGT SNOW  26  24  92 SE10      30.02F FOG     WCI  16
ELY            LGT SNOW  25  23  93 S7        30.02F WCI  17
HIBBING        LGT SNOW  25  23  92 SE9       29.99F VSB 1   WCI  15
EVELETH        LGT SNOW  26  25  94 SE5       30.02F WCI  21
DULUTH HARBOR  LGT SNOW  28  27  93 CALM      30.08F
TWO HARBORS    LGT SNOW  32  27  80 S5        30.04F WCI  27
SILVER BAY     LGT SNOW  28  27  93 CALM      30.05F
GRAND MARAIS     N/A     35  24  64 S9        30.10F WCI  28
G MARAIS ARPRT CLOUDY    27  18  69 S5        30.04F WCI  21
$$
MNZ029>031-032-039>041-046>048-054>057-064-041100-
   West Central Minnesota

CITY           SKY/WX    TMP DP  RH WIND       PRES   REMARKS
FERGUS FALLS   CLOUDY    34  34 100 S16       29.89F FOG     WCI  23
WHEATON        CLOUDY   N/A N/A N/A S13       29.87F HAZE
MORRIS         MOCLDY    34  32  93 S12       29.88F FOG     WCI  25
ALEXANDRIA     CLOUDY    33  33 100 S15       29.90F FOG     WCI  23
ELBOW LAKE     CLOUDY    32  32  99 S17       29.87F WCI  21
WADENA         DRIZZLE   30  30 100 SE9       29.88F WCI  22
GLENWOOD       CLOUDY    32  32 100 S14       29.91F FOG     WCI  22
APPLETON       CLOUDY    36  32  87 S10       29.89F
BENSON         MIX PCPN  34  32  93 S9        29.91F WCI  26
ORTONVILLE     CLOUDY    34  30  86 CALM      29.88F FOG
MADISON        CLOUDY    37  36  93 S13       29.89F
WILLMAR        CLOUDY    34  34 100 S12       29.94F WCI  25
$$
MNZ033>034-036-042>043-049>051-058-059-041100-
   Central Minnesota

CITY           SKY/WX    TMP DP  RH WIND       PRES   REMARKS
ST CLOUD       LGT SNOW  31  30  96 SE12      29.97F FOG     WCI  22
PAYNESVILLE    LGT SNOW  33  33 100 S10       29.94F WCI  24
AITKIN         LGT SNOW  30  25  80 SE8       29.96F WCI  23
PINE RIVER     LGT SNOW  28  28 100 SE8       29.96F WCI  20
BRAINERD       LGT SNOW  29  27  92 SE9       29.95F FOG     WCI  20
STAPLES        CLOUDY    28  28 100 SE8       29.91F FOG     WCI  20
LONG PRAIRIE   LGT SNOW  32  32 100 SE12      29.92F WCI  23
LITTLE FALLS   LGT SNOW  32  28  86 SE7       29.95F WCI  26
LITCHFIELD     MIX PCPN  34  34 100 S3        29.96F
BUFFALO        LGT SNOW  32  31  94 SE7       30.00F WCI  26
MAPLE LAKE     MIX PCPN  33  32  97 SE6       29.99F WCI  27
$$
MNZ037-044-045-052-053-041100-
   East Central Minnesota

CITY           SKY/WX    TMP DP  RH WIND       PRES   REMARKS
PRINCETON      LGT SNOW  32  30  93 SE8       29.99F WCI  25
MORA           LGT SNOW  30  28  93 SE6       30.02F WCI  24
CAMBRIDGE      LGT SNOW  32  27  80 SE5       30.00F WCI  27
RUSH CITY      CLOUDY    28  28 100 SE6       30.03F WCI  22
MOOSE LAKE     LGT SNOW  30  27  86 SE3       30.01F
HINCKLEY       LGT SNOW  30  30 100 SE6       30.03F WCI  24
CLOQUET        LGT SNOW  27  25  93 E6        30.02F WCI  20
MCGREGOR       CLOUDY    28  27  93 SE9       29.99F WCI  20
$$
MNZ071>073-080-081-089-090-097-098-041100-
   Southwest Minnesota

CITY           SKY/WX    TMP DP  RH WIND       PRES   REMARKS
MONTEVIDEO     CLOUDY    34  34 100 SW8       29.93F WCI  27
GRANITE FALLS  CLOUDY    36  34  94 S8        29.94F
CANBY          CLOUDY    36  33  89 CALM      29.90F
MARSHALL       CLOUDY    35  32  88 S14       29.91F WCI  26
REDWOOD FALLS  CLOUDY    34  32  92 S9        29.94F WCI  27
OLIVIA         CLOUDY    34  32  93 SE8       29.93F WCI  27
PIPESTONE      CLOUDY    34  34 100 SW13      29.89F FOG     WCI  25
WINDOM         CLOUDY    34  34 100 CALM      29.93F
WORTHINGTON    CLOUDY    33  32  96 S13       29.93F WCI  24
JACKSON        CLOUDY    32  32 100 S12       29.95F FOG     WCI  23
TRACY          CLOUDY    35  33  94 SW13G20   29.92F WCI  26
SLAYTON        CLOUDY    32  32 100 S14       29.92F FOG     WCI  22
$$
MNZ065>067-074>077-082>085-091>093-041100-
   South Central Minnesota

CITY           SKY/WX    TMP DP  RH WIND       PRES   REMARKS
MANKATO        LGT SNOW  33  31  92 SE13      29.99F FOG     WCI  24
NEW ULM        LGT SNOW  34  34 100 S9        29.96F WCI  26
ST JAMES       CLOUDY    34  34 100 SE9       29.97F FOG     WCI  26
FAIRMONT       LGT RAIN  33  32  96 S10       29.97F WCI  25
GLENCOE        LGT SNOW  33  33 100 SE7       29.98F WCI  27
FARIBAULT      LGT SNOW  34  32  93 SE7       30.01F WCI  28
OWATONNA       LGT SNOW  34  30  86 SE12      30.00F WCI  25
WASECA         LGT SNOW  32  32 100 SE9       30.01F WCI  24
ALBERT LEA     LGT SNOW  36  36 100 SE13      30.00F
$$
MNZ078>079-086>088-094>096-041100-
   Southeast Minnesota

CITY           SKY/WX    TMP DP  RH WIND       PRES   REMARKS
ROCHESTER      LGT SNOW  32  31  96 SE13      30.03F FOG     WCI  22
STANTON        LGT SNOW  34  31  91 SE7       30.02F WCI  28
DODGE CENTER   LGT SNOW  30  30 100 SE10      30.01F WCI  21
WINONA         LGT SNOW  32  32 100 SE7       30.10F WCI  26
AUSTIN         LGT SNOW  32  30  93 SE9       30.01F WCI  24
PRESTON        LGT SNOW  31  30  95 SE10      30.04F WCI  22
$$
ABBREVIATIONS USED IN REMARKS
   TC - TEMPERATURES IN CELSIUS
  WCI - WIND CHILL INDEX
   HX - HEAT INDEX
  VSB - VISIBILITY
$$




USA.gov is the U.S. government's official web portal to all federal, state and local government web resources and services.